| time (UTC) | temp F | wind direction | speed MPH | gust MPH | rain 1hr in | rain 24hr in | rain mn in | humidity % | barometer mb |
| 20260906104601 | 60 | 96 | 1.0 | 2.0 | 0.00 | 0.00 | 0.00 | 95 | 1018.3 |
| 20260906103059 | 60 | 96 | 2.0 | 3.0 | 0.00 | 0.00 | 0.00 | 95 | 1018.3 |
| 20260906101603 | 61 | 96 | 1.0 | 4.0 | 0.00 | 0.00 | 0.00 | 95 | 1018.4 |
| 20260906100101 | 61 | 96 | 2.0 | 3.0 | 0.00 | 0.00 | 0.00 | 96 | 1018.3 |
| 20260906094609 | 61 | 0 | 0.0 | 0.0 | 0.00 | 0.00 | 0.00 | 96 | 1018.3 |
| 20260906093105 | 61 | 0 | 0.0 | 2.0 | 0.00 | 0.00 | 0.00 | 96 | 1018.4 |
| 20260906091608 | 62 | 0 | 0.0 | 2.0 | 0.00 | 0.00 | 0.00 | 96 | 1018.3 |
| 20260906090104 | 62 | 96 | 1.0 | 3.0 | 0.00 | 0.00 | 0.00 | 97 | 1018.3 |
| 20260906084607 | 62 | 0 | 0.0 | 0.0 | 0.00 | 0.00 | 0.00 | 96 | 1018.2 |
| 20260906083059 | 62 | 0 | 0.0 | 2.0 | 0.00 | 0.00 | 0.00 | 96 | 1018.1 |
| 20260906081603 | 62 | 115 | 1.0 | 3.0 | 0.00 | 0.00 | 0.00 | 97 | 1018.2 |
| 20260906080104 | 62 | 115 | 1.0 | 2.0 | 0.00 | 0.00 | 0.00 | 96 | 1018.1 |
| 20260906074605 | 62 | 0 | 0.0 | 1.0 | 0.00 | 0.00 | 0.00 | 97 | 1018.1 |
| 20260906073057 | 62 | 0 | 0.0 | 0.0 | 0.00 | 0.00 | 0.00 | 97 | 1018.1 |
| 20260906071558 | 62 | 0 | 0.0 | 0.0 | 0.00 | 0.00 | 0.00 | 96 | 1018.1 |
| 20260906070105 | 62 | 0 | 0.0 | 0.0 | 0.00 | 0.00 | 0.00 | 96 | 1018.1 |
| 20260906064558 | 63 | 0 | 0.0 | 0.0 | 0.00 | 0.00 | 0.00 | 96 | 1018.3 |
| 20260906063100 | 63 | 0 | 0.0 | 0.0 | 0.00 | 0.00 | 0.00 | 96 | 1018.3 |
| 20260906061600 | 63 | 0 | 0.0 | 0.0 | 0.00 | 0.00 | 0.00 | 96 | 1018.5 |
| 20260906060105 | 63 | 0 | 0.0 | 0.0 | 0.00 | 0.00 | 0.00 | 96 | 1018.4 |
| 20260906054559 | 64 | 0 | 0.0 | 0.0 | 0.00 | 0.00 | 0.00 | 96 | 1018.3 |
| 20260906053109 | 64 | 0 | 0.0 | 0.0 | 0.00 | 0.00 | 0.00 | 96 | 1018.2 |
| 20260906051605 | 64 | 0 | 0.0 | 1.0 | 0.00 | 0.00 | 0.00 | 96 | 1018.2 |
| 20260906050106 | 64 | 0 | 0.0 | 0.0 | 0.00 | 0.00 | 0.00 | 95 | 1018.4 |
| 20260906044558 | 65 | 0 | 0.0 | 0.0 | 0.00 | 0.00 | 0.00 | 95 | 1018.2 |
| 20260906043107 | 65 | 0 | 0.0 | 0.0 | 0.00 | 0.00 | 0.00 | 94 | 1018.0 |
| 20260906041601 | 66 | 0 | 0.0 | 0.0 | 0.00 | 0.00 | 0.00 | 94 | 1017.9 |
| 20260906040114 | 66 | 0 | 0.0 | 1.0 | 0.00 | 0.00 | 0.00 | 94 | 1017.7 |
| 20260906034607 | 67 | 0 | 0.0 | 1.0 | 0.00 | 0.00 | 0.00 | 93 | 1017.4 |
| 20260906033111 | 67 | 0 | 0.0 | 3.0 | 0.00 | 0.00 | 0.00 | 93 | 1017.2 |
| 20260906031603 | 67 | 0 | 0.0 | 2.0 | 0.00 | 0.00 | 0.00 | 93 | 1017.2 |
| 20260906024600 | 68 | 82 | 2.0 | 4.0 | 0.00 | 0.00 | 0.00 | 92 | 1017.1 |
| 20260906023100 | 69 | 94 | 2.0 | 4.0 | 0.00 | 0.00 | 0.00 | 92 | 1017.0 |
| 20260906021605 | 69 | 72 | 3.0 | 6.0 | 0.00 | 0.00 | 0.00 | 92 | 1016.8 |
| 20260906020107 | 70 | 89 | 3.0 | 7.0 | 0.00 | 0.00 | 0.00 | 92 | 1016.4 |
| 20260906014604 | 70 | 97 | 3.0 | 6.0 | 0.00 | 0.00 | 0.00 | 92 | 1016.3 |
| 20260906013111 | 70 | 96 | 1.0 | 6.0 | 0.00 | 0.00 | 0.00 | 91 | 1016.2 |
| 20260906011607 | 70 | 74 | 3.0 | 6.0 | 0.00 | 0.00 | 0.00 | 91 | 1016.0 |
| 20260906010111 | 71 | 63 | 3.0 | 5.0 | 0.00 | 0.00 | 0.00 | 90 | 1016.1 |
| 20260906004611 | 71 | 72 | 2.0 | 7.0 | 0.00 | 0.00 | 0.00 | 90 | 1016.0 |
| 20260906003106 | 72 | 71 | 3.0 | 6.0 | 0.00 | 0.00 | 0.00 | 89 | 1016.0 |
| 20260906001602 | 73 | 96 | 4.0 | 11.0 | 0.00 | 0.00 | 0.00 | 88 | 1016.0 |
| 20260906000109 | 74 | 68 | 5.0 | 8.0 | 0.00 | 0.00 | 0.00 | 86 | 1016.2 |
| 20260905234604 | 75 | 63 | 5.0 | 7.0 | 0.00 | 0.00 | 0.00 | 86 | 1016.2 |
| 20260905233103 | 76 | 51 | 6.0 | 12.0 | 0.00 | 0.00 | 0.00 | 85 | 1016.1 |
| 20260905231600 | 76 | 62 | 7.0 | 13.0 | 0.00 | 0.00 | 0.00 | 83 | 1016.1 |
| 20260905230110 | 76 | 55 | 3.0 | 9.0 | 0.00 | 0.00 | 0.00 | 83 | 1016.2 |
| 20260905224603 | 78 | 74 | 8.0 | 12.0 | 0.00 | 0.00 | 0.00 | 78 | 1016.1 |
| 20260905223100 | 78 | 63 | 7.0 | 12.0 | 0.00 | 0.00 | 0.00 | 77 | 1015.8 |
| 20260905221605 | 78 | 55 | 5.0 | 11.0 | 0.00 | 0.00 | 0.00 | 78 | 1015.7 |
| 20260905220106 | 79 | 39 | 5.0 | 8.0 | 0.00 | 0.00 | 0.00 | 77 | 1015.6 |
| 20260905214603 | 79 | 65 | 4.0 | 7.0 | 0.00 | 0.00 | 0.00 | 78 | 1015.7 |
| 20260905213102 | 78 | 52 | 3.0 | 7.0 | 0.00 | 0.00 | 0.00 | 78 | 1015.8 |
| 20260905211600 | 78 | 63 | 4.0 | 9.0 | 0.00 | 0.00 | 0.00 | 79 | 1015.8 |
| 20260905210123 | 78 | 47 | 3.0 | 7.0 | 0.00 | 0.00 | 0.00 | 80 | 1016.1 |
| 20260905204604 | 79 | 66 | 6.0 | 11.0 | 0.00 | 0.00 | 0.00 | 79 | 1015.8 |
| 20260905203058 | 78 | 32 | 6.0 | 13.0 | 0.00 | 0.00 | 0.00 | 82 | 1015.6 |
| 20260905201557 | 78 | 70 | 5.0 | 10.0 | 0.00 | 0.00 | 0.00 | 80 | 1015.7 |
| 20260905194610 | 77 | 68 | 6.0 | 10.0 | 0.00 | 0.00 | 0.00 | 83 | 1016.0 |
| 20260905193056 | 77 | 58 | 3.0 | 7.0 | 0.00 | 0.00 | 0.00 | 83 | 1016.2 |
| 20260905191609 | 76 | 85 | 3.0 | 9.0 | 0.00 | 0.00 | 0.00 | 84 | 1016.3 |
| 20260905190117 | 76 | 66 | 5.0 | 10.0 | 0.00 | 0.00 | 0.00 | 84 | 1016.3 |
| 20260905184623 | 76 | 44 | 3.0 | 9.0 | 0.00 | 0.00 | 0.00 | 84 | 1016.5 |
| 20260905183104 | 76 | 75 | 4.0 | 12.0 | 0.00 | 0.00 | 0.00 | 83 | 1016.5 |
| 20260905181607 | 76 | 33 | 6.0 | 10.0 | 0.00 | 0.00 | 0.00 | 85 | 1016.5 |
| 20260905180100 | 76 | 53 | 5.0 | 10.0 | 0.00 | 0.00 | 0.00 | 84 | 1016.5 |
| 20260905174600 | 76 | 67 | 3.0 | 10.0 | 0.00 | 0.00 | 0.00 | 85 | 1016.5 |
| 20260905173109 | 76 | 57 | 4.0 | 11.0 | 0.00 | 0.00 | 0.00 | 84 | 1016.6 |
| 20260905171605 | 77 | 74 | 2.0 | 10.0 | 0.00 | 0.00 | 0.00 | 85 | 1016.6 |
| 20260905170101 | 76 | 65 | 2.0 | 8.0 | 0.00 | 0.00 | 0.00 | 86 | 1016.6 |
| 20260905164603 | 75 | 65 | 2.0 | 7.0 | 0.00 | 0.00 | 0.00 | 86 | 1016.6 |
| 20260905163110 | 75 | 77 | 5.0 | 9.0 | 0.00 | 0.00 | 0.00 | 86 | 1016.6 |
| 20260905161555 | 74 | 47 | 5.0 | 12.0 | 0.00 | 0.00 | 0.00 | 87 | 1016.5 |
| 20260905160059 | 73 | 59 | 4.0 | 8.0 | 0.00 | 0.00 | 0.00 | 89 | 1016.4 |
| 20260905154616 | 72 | 0 | 2.0 | 8.0 | 0.00 | 0.00 | 0.00 | 91 | 1016.5 |
| 20260905153107 | 72 | 88 | 3.0 | 8.0 | 0.00 | 0.00 | 0.00 | 91 | 1016.5 |
| 20260905151614 | 71 | 79 | 3.0 | 8.0 | 0.00 | 0.00 | 0.00 | 92 | 1016.4 |
| 20260905150059 | 71 | 75 | 5.0 | 9.0 | 0.00 | 0.00 | 0.00 | 92 | 1016.1 |
| 20260905144559 | 71 | 88 | 4.0 | 10.0 | 0.00 | 0.43 | 0.00 | 92 | 1016.0 |
| 20260905143100 | 71 | 40 | 5.0 | 11.0 | 0.00 | 0.43 | 0.00 | 92 | 1015.9 |
| 20260905141602 | 71 | 57 | 7.0 | 12.0 | 0.00 | 0.43 | 0.00 | 92 | 1015.6 |
| 20260905140059 | 71 | 51 | 5.0 | 13.0 | 0.00 | 0.43 | 0.00 | 92 | 1015.6 |
| 20260905134559 | 71 | 41 | 4.0 | 14.0 | 0.00 | 0.72 | 0.00 | 93 | 1015.3 |
| 20260905133103 | 71 | 82 | 4.0 | 13.0 | 0.00 | 0.72 | 0.00 | 94 | 1015.2 |
| 20260905131603 | 71 | 101 | 6.0 | 15.0 | 0.00 | 0.72 | 0.00 | 94 | 1015.1 |
| 20260905130059 | 71 | 96 | 5.0 | 12.0 | 0.00 | 0.72 | 0.00 | 95 | 1015.1 |
| 20260905124601 | 70 | 55 | 6.0 | 10.0 | 0.00 | 0.72 | 0.00 | 96 | 1015.1 |
| 20260905123104 | 70 | 73 | 4.0 | 10.0 | 0.00 | 0.72 | 0.00 | 96 | 1015.3 |
| 20260905121602 | 70 | 46 | 4.0 | 12.0 | 0.00 | 0.72 | 0.00 | 97 | 1014.9 |
| 20260905120057 | 70 | 91 | 2.0 | 8.0 | 0.00 | 0.72 | 0.00 | 97 | 1014.5 |
| 20260905114557 | 69 | 74 | 4.0 | 9.0 | 0.00 | 0.72 | 0.00 | 97 | 1014.3 |
| 20260905113100 | 69 | 58 | 5.0 | 9.0 | 0.00 | 0.72 | 0.00 | 97 | 1014.1 |
| 20260905111645 | 69 | 76 | 4.0 | 10.0 | 0.00 | 0.72 | 0.00 | 97 | 1013.9 |
| 20260905110057 | 69 | 0 | 2.0 | 6.0 | 0.00 | 0.72 | 0.00 | 97 | 1013.6 |